Regional Weather Roundup
Issued by NWS

Home | Current Version | Previous Version | Text Only | Print | Product List | Glossary Off
Versions: 1 2 3 4 5 6 7 8 9 10 11 12 13 14 15 16 17 18 19 20 21 22 23 24 25 26 27 28 29 30 31 32 33 34 35 36 37 38 39 40 41 42 43 44 45 46 47 48 49 50

908
ASUS43 KFSD 221902
RWRSD

WEATHER ROUNDUP FOR SOUTH DAKOTA
NATIONAL WEATHER SERVICE SIOUX FALLS SD
200 PM CDT TUE MAY 22 2018

NOTE: "FAIR" INDICATES FEW OR NO CLOUDS BELOW 12,000 FEET WITH NO
SIGNIFICANT WEATHER AND/OR OBSTRUCTIONS TO VISIBILITY.


SDZ001>005-009-010-012>017-222000-
NORTHWEST AND NORTH CENTRAL SOUTH DAKOTA

CITY           SKY/WX    TMP DP  RH WIND       PRES   REMARKS
BUFFALO          N/A     78  53  41 E7        29.88F
FAITH            N/A     78  58  49 SE7       29.93
MOBRIDGE       SUNNY     81  61  50 SE12      29.91F
$$

SDZ012>016-024>037-041>051-057-063-072>074-222000-
SOUTHWEST AND SOUTH CENTRAL SOUTH DAKOTA

CITY           SKY/WX    TMP DP  RH WIND       PRES   REMARKS
RAPID CTY ARPT SUNNY     77  57  50 NE8       29.95F
PIERRE         SUNNY     80  64  58 E16       29.91F
CUSTER         MOSUNNY   72  44  36 E10       30.05S
ELLSWORTH AFB  SUNNY     76  56  50 E7        29.95F
PHILIP         SUNNY     79  62  56 SE9       29.91F
PINE RIDGE     MOSUNNY   83  50  31 E9        29.93F
WINNER         FAIR      80  64  58 SE13      29.93F
$$

SDZ004>011-016>023-039-040-222000-
NORTHEAST SOUTH DAKOTA

CITY           SKY/WX    TMP DP  RH WIND       PRES   REMARKS
ABERDEEN       PTSUNNY   83  53  35 SE8       29.94F
WATERTOWN      SUNNY     78  55  44 SE10      29.98S
BROOKINGS      SUNNY     78  55  44 SE8       29.99F
SISSETON         N/A     78  57  48 VRB5      29.96F
$$

SDZ017-020-022-023-036>040-048>070-222000-
SOUTHEAST SOUTH DAKOTA

CITY           SKY/WX    TMP DP  RH WIND       PRES   REMARKS
SIOUX FALLS    MOSUNNY   78  64  61 S9G21     29.97F
HURON          SUNNY     80  58  46 E9G20     29.94S
CHAMBERLAIN    MOSUNNY   82  65  56 E12G17    29.93F
MITCHELL       MOSUNNY   80  64  58 SE14      29.94F
YANKTON        CLOUDY    75  65  70 SE14      29.95F
$$

ABBREVIATIONS USED IN REMARKS
   TC - TEMPERATURE IN CELSIUS
  WCI - WIND CHILL INDEX
   HX - HEAT INDEX
  VSB - VISIBILITY





USA.gov is the U.S. government's official web portal to all federal, state and local government web resources and services.